Time,TemperatureF,DewpointF,PressureIn,WindDirection,WindDirectionDegrees,WindSpeedMPH,WindSpeedGustMPH,Humidity,HourlyPrecipIn,Conditions,Clouds,dailyrainin,SoftwareType,DateUTC
2013-04-23 00:03:00,32.5,30.7,30.15,ENE,68,0.0,0.0,93,0.00,,,0.01,meteohub,2013-04-23 05:03:00,
2013-04-23 00:08:00,32.5,30.7,30.15,ENE,68,0.0,0.0,93,0.00,,,0.01,meteohub,2013-04-23 05:08:00,
2013-04-23 00:13:00,32.4,30.6,30.15,ENE,68,0.0,0.0,93,0.00,,,0.01,meteohub,2013-04-23 05:13:00,
2013-04-23 00:18:00,32.4,30.6,30.15,ENE,68,0.0,0.0,93,0.00,,,0.01,meteohub,2013-04-23 05:18:00,
2013-04-23 00:23:00,32.4,30.6,30.15,ENE,68,0.0,0.0,93,0.00,,,0.01,meteohub,2013-04-23 05:23:00,
2013-04-23 00:28:00,32.4,30.6,30.15,ENE,68,0.0,0.0,93,0.00,,,0.01,meteohub,2013-04-23 05:28:00,
2013-04-23 00:33:00,32.4,30.6,30.14,ENE,68,0.0,0.0,93,0.00,,,0.01,meteohub,2013-04-23 05:33:00,
2013-04-23 00:39:00,32.4,30.6,30.14,ENE,68,0.0,0.0,93,0.00,,,0.01,meteohub,2013-04-23 05:39:00,
2013-04-23 00:44:00,32.4,30.6,30.14,ENE,68,0.0,0.0,93,0.00,,,0.01,meteohub,2013-04-23 05:44:00,
2013-04-23 00:49:00,32.4,30.6,30.15,ENE,68,0.0,0.0,93,0.00,,,0.01,meteohub,2013-04-23 05:49:00,
2013-04-23 00:54:00,32.4,30.6,30.15,ENE,68,0.0,0.0,93,0.00,,,0.01,meteohub,2013-04-23 05:54:00,
2013-04-23 00:59:00,32.4,30.6,30.15,ENE,68,0.0,0.0,93,0.00,,,0.01,meteohub,2013-04-23 05:59:00,
2013-04-23 01:04:00,32.4,30.6,30.15,ENE,68,0.0,0.0,93,0.00,,,0.01,meteohub,2013-04-23 06:04:00,
2013-04-23 01:09:00,32.2,30.4,30.15,ENE,68,0.0,0.0,93,0.00,,,0.01,meteohub,2013-04-23 06:09:00,
2013-04-23 01:14:00,32.2,30.4,30.15,ENE,68,0.0,0.0,93,0.00,,,0.01,meteohub,2013-04-23 06:14:00,
2013-04-23 01:19:00,32.2,30.4,30.15,ENE,68,0.0,0.0,93,0.00,,,0.01,meteohub,2013-04-23 06:19:00,
2013-04-23 01:24:00,32.2,30.4,30.16,ENE,68,0.0,0.0,93,0.00,,,0.01,meteohub,2013-04-23 06:24:00,
2013-04-23 01:29:00,32.2,30.4,30.16,ENE,68,0.0,0.0,93,0.00,,,0.01,meteohub,2013-04-23 06:29:00,
2013-04-23 01:34:00,32.2,30.4,30.17,ENE,68,0.0,0.0,93,0.00,,,0.01,meteohub,2013-04-23 06:34:00,
2013-04-23 01:40:00,32.2,30.4,30.17,ENE,68,0.0,0.0,93,0.00,,,0.01,meteohub,2013-04-23 06:40:00,
2013-04-23 01:45:00,32.2,30.4,30.18,ENE,68,0.0,0.0,93,0.00,,,0.01,meteohub,2013-04-23 06:45:00,
2013-04-23 01:50:00,32.2,30.4,30.18,ENE,68,0.0,0.0,93,0.00,,,0.01,meteohub,2013-04-23 06:50:00,
2013-04-23 01:55:00,32.2,30.4,30.18,ENE,68,0.0,0.0,93,0.00,,,0.01,meteohub,2013-04-23 06:55:00,
2013-04-23 02:00:00,32.2,30.4,30.19,ENE,68,0.0,0.0,93,0.00,,,0.01,meteohub,2013-04-23 07:00:00,
2013-04-23 02:05:00,32.2,30.4,30.18,ENE,68,0.0,0.0,93,0.00,,,0.01,meteohub,2013-04-23 07:05:00,
2013-04-23 02:10:00,32.0,30.2,30.17,ENE,68,0.0,0.0,93,0.00,,,0.01,meteohub,2013-04-23 07:10:00,
2013-04-23 02:15:00,32.0,30.2,30.17,ENE,68,0.0,0.0,93,0.00,,,0.01,meteohub,2013-04-23 07:15:00,
2013-04-23 02:20:00,32.0,30.2,30.17,ENE,68,0.0,0.0,93,0.00,,,0.01,meteohub,2013-04-23 07:20:00,
2013-04-23 02:25:00,32.0,30.2,30.17,ENE,68,0.0,0.0,93,0.00,,,0.01,meteohub,2013-04-23 07:25:00,
2013-04-23 02:30:00,31.8,30.0,30.17,ENE,68,0.0,0.0,93,0.00,,,0.01,meteohub,2013-04-23 07:30:00,
2013-04-23 02:35:00,31.8,30.0,30.17,ENE,68,0.0,0.0,93,0.00,,,0.01,meteohub,2013-04-23 07:35:00,
2013-04-23 02:40:00,31.8,30.0,30.16,ENE,68,0.0,0.0,93,0.00,,,0.01,meteohub,2013-04-23 07:40:00,
2013-04-23 02:45:00,31.8,30.0,30.15,ENE,68,0.0,0.0,93,0.00,,,0.01,meteohub,2013-04-23 07:45:00,
2013-04-23 02:50:00,31.8,30.0,30.16,ENE,68,0.0,0.0,93,0.00,,,0.01,meteohub,2013-04-23 07:50:00,
2013-04-23 02:55:00,31.8,30.0,30.16,ENE,68,0.0,0.0,93,0.00,,,0.01,meteohub,2013-04-23 07:55:00,
2013-04-23 03:01:00,31.6,29.8,30.16,ENE,68,0.0,0.0,93,0.00,,,0.01,meteohub,2013-04-23 08:01:00,
2013-04-23 03:06:00,31.6,29.8,30.16,ENE,68,0.0,0.0,93,0.00,,,0.01,meteohub,2013-04-23 08:06:00,
2013-04-23 03:11:00,31.6,29.8,30.17,ENE,68,0.0,0.0,93,0.00,,,0.01,meteohub,2013-04-23 08:11:00,
2013-04-23 03:16:00,31.6,29.8,30.16,ENE,68,0.0,0.0,93,0.00,,,0.01,meteohub,2013-04-23 08:16:00,
2013-04-23 03:21:00,31.5,29.7,30.16,ENE,68,0.0,0.0,93,0.00,,,0.01,meteohub,2013-04-23 08:21:00,
2013-04-23 03:26:00,31.5,29.7,30.16,ENE,68,0.0,0.0,93,0.00,,,0.01,meteohub,2013-04-23 08:26:00,
2013-04-23 03:31:00,31.5,29.7,30.16,ENE,68,0.0,0.0,93,0.00,,,0.01,meteohub,2013-04-23 08:31:00,
2013-04-23 03:36:00,31.5,29.7,30.16,ENE,68,0.0,0.0,93,0.00,,,0.01,meteohub,2013-04-23 08:36:00,
2013-04-23 03:41:00,31.3,29.5,30.15,ENE,68,0.0,0.0,93,0.00,,,0.01,meteohub,2013-04-23 08:41:00,
2013-04-23 03:46:00,31.3,29.5,30.15,ENE,68,0.0,0.0,93,0.00,,,0.01,meteohub,2013-04-23 08:46:00,
2013-04-23 03:51:00,31.3,29.5,30.15,ENE,68,0.0,0.0,93,0.00,,,0.01,meteohub,2013-04-23 08:51:00,
2013-04-23 03:56:00,31.1,29.3,30.14,ENE,68,0.0,0.0,93,0.00,,,0.01,meteohub,2013-04-23 08:56:00,
2013-04-23 04:01:00,30.9,29.1,30.15,ENE,68,0.0,0.0,93,0.00,,,0.01,meteohub,2013-04-23 09:01:00,
2013-04-23 04:06:00,30.9,29.1,30.15,ENE,68,0.0,0.0,93,0.00,,,0.01,meteohub,2013-04-23 09:06:00,
2013-04-23 04:11:00,30.9,29.1,30.15,ENE,68,0.0,0.0,93,0.00,,,0.01,meteohub,2013-04-23 09:11:00,
2013-04-23 04:16:00,30.9,29.1,30.15,ENE,68,0.0,0.0,93,0.00,,,0.01,meteohub,2013-04-23 09:16:00,
2013-04-23 04:22:00,30.7,28.9,30.14,ENE,68,0.0,0.0,93,0.00,,,0.01,meteohub,2013-04-23 09:22:00,
2013-04-23 04:27:00,30.7,28.9,30.14,ENE,68,0.0,0.0,93,0.00,,,0.01,meteohub,2013-04-23 09:27:00,
2013-04-23 04:32:00,30.7,28.9,30.14,ENE,68,0.0,0.0,93,0.00,,,0.01,meteohub,2013-04-23 09:32:00,
2013-04-23 04:37:00,30.6,28.8,30.14,ENE,68,0.0,0.0,93,0.00,,,0.01,meteohub,2013-04-23 09:37:00,
2013-04-23 04:42:00,30.6,28.8,30.14,ENE,68,0.0,0.0,93,0.00,,,0.01,meteohub,2013-04-23 09:42:00,
2013-04-23 04:47:00,30.6,28.8,30.14,ENE,68,0.0,0.0,93,0.00,,,0.01,meteohub,2013-04-23 09:47:00,
2013-04-23 04:52:00,30.4,28.6,30.14,ENE,68,0.0,0.0,93,0.00,,,0.01,meteohub,2013-04-23 09:52:00,
2013-04-23 04:57:00,30.4,28.6,30.14,ENE,68,0.0,0.0,93,0.00,,,0.01,meteohub,2013-04-23 09:57:00,
2013-04-23 05:02:00,30.4,28.6,30.15,ENE,68,0.0,0.0,93,0.00,,,0.01,meteohub,2013-04-23 10:02:00,
2013-04-23 05:07:00,30.4,28.6,30.15,ENE,68,0.0,0.0,93,0.00,,,0.01,meteohub,2013-04-23 10:07:00,
2013-04-23 05:12:00,30.4,28.6,30.16,ENE,68,0.0,0.0,93,0.00,,,0.01,meteohub,2013-04-23 10:12:00,
2013-04-23 05:17:00,30.4,28.6,30.17,ENE,68,0.0,0.0,93,0.00,,,0.01,meteohub,2013-04-23 10:17:00,
2013-04-23 05:22:00,30.4,28.6,30.18,ENE,68,0.0,0.0,93,0.00,,,0.01,meteohub,2013-04-23 10:22:00,
2013-04-23 05:27:00,30.4,28.6,30.19,ENE,68,0.0,0.0,93,0.00,,,0.01,meteohub,2013-04-23 10:27:00,
2013-04-23 05:32:00,30.4,28.6,30.19,ENE,68,0.0,0.0,93,0.00,,,0.01,meteohub,2013-04-23 10:32:00,
2013-04-23 05:37:00,30.6,28.8,30.18,ENE,68,0.0,0.0,93,0.00,,,0.01,meteohub,2013-04-23 10:37:00,
2013-04-23 05:42:00,30.6,28.8,30.19,ENE,68,0.0,0.0,93,0.00,,,0.01,meteohub,2013-04-23 10:42:00,
2013-04-23 05:47:00,30.6,28.8,30.18,ENE,68,0.0,0.0,93,0.00,,,0.01,meteohub,2013-04-23 10:47:00,
2013-04-23 05:52:00,30.6,28.8,30.17,ENE,68,0.0,0.0,93,0.00,,,0.01,meteohub,2013-04-23 10:52:00,
2013-04-23 05:57:00,30.6,28.8,30.17,ENE,68,0.0,0.0,93,0.00,,,0.01,meteohub,2013-04-23 10:57:00,
2013-04-23 06:02:00,30.6,28.8,30.17,ENE,68,0.0,0.0,93,0.00,,,0.01,meteohub,2013-04-23 11:02:00,
2013-04-23 06:07:00,30.4,28.6,30.18,ENE,68,0.0,0.0,93,0.00,,,0.01,meteohub,2013-04-23 11:07:00,
2013-04-23 06:12:00,30.4,28.6,30.18,ENE,68,0.0,0.0,93,0.00,,,0.01,meteohub,2013-04-23 11:12:00,
2013-04-23 06:17:00,30.4,28.6,30.18,ENE,68,0.0,0.0,93,0.00,,,0.01,meteohub,2013-04-23 11:17:00,
2013-04-23 06:22:00,30.2,28.4,30.19,ENE,68,0.0,0.0,93,0.00,,,0.01,meteohub,2013-04-23 11:22:00,
2013-04-23 06:27:00,30.0,28.2,30.18,ENE,68,0.0,0.0,93,0.00,,,0.01,meteohub,2013-04-23 11:27:00,
2013-04-23 06:32:00,29.8,28.0,30.19,ENE,68,0.0,0.0,93,0.00,,,0.01,meteohub,2013-04-23 11:32:00,
2013-04-23 06:37:00,29.8,28.0,30.19,ENE,68,0.0,0.0,93,0.00,,,0.01,meteohub,2013-04-23 11:37:00,
2013-04-23 06:42:00,29.7,27.9,30.18,ENE,68,0.0,0.0,93,0.00,,,0.01,meteohub,2013-04-23 11:42:00,
2013-04-23 06:47:00,29.7,27.9,30.18,ENE,68,0.0,0.0,93,0.00,,,0.01,meteohub,2013-04-23 11:47:00,
2013-04-23 06:52:00,29.5,27.7,30.18,ENE,68,0.0,0.0,93,0.00,,,0.01,meteohub,2013-04-23 11:52:00,
2013-04-23 06:57:00,29.3,27.5,30.19,ENE,68,0.0,0.0,93,0.00,,,0.01,meteohub,2013-04-23 11:57:00,
2013-04-23 07:02:00,29.1,27.3,30.18,ENE,68,0.0,0.0,93,0.00,,,0.01,meteohub,2013-04-23 12:02:00,
2013-04-23 07:07:00,28.9,27.1,30.19,ENE,68,0.0,0.0,93,0.00,,,0.01,meteohub,2013-04-23 12:07:00,
2013-04-23 07:12:00,28.8,27.0,30.19,ENE,68,0.0,0.0,93,0.00,,,0.01,meteohub,2013-04-23 12:12:00,
2013-04-23 07:17:00,28.8,26.8,30.18,ENE,68,0.0,0.0,92,0.00,,,0.01,meteohub,2013-04-23 12:17:00,
2013-04-23 07:22:00,28.6,26.6,30.18,ENE,68,0.0,0.0,92,0.00,,,0.01,meteohub,2013-04-23 12:22:00,
2013-04-23 07:27:00,28.6,26.8,30.19,ENE,68,0.0,0.0,93,0.00,,,0.01,meteohub,2013-04-23 12:27:00,
2013-04-23 07:32:00,28.6,26.8,30.19,ENE,68,0.0,0.0,93,0.00,,,0.01,meteohub,2013-04-23 12:32:00,
2013-04-23 07:37:00,28.6,26.8,30.19,ENE,68,0.0,0.0,93,0.00,,,0.01,meteohub,2013-04-23 12:37:00,
2013-04-23 07:42:00,28.6,26.8,30.19,ENE,68,0.0,0.0,93,0.00,,,0.01,meteohub,2013-04-23 12:42:00,
2013-04-23 07:47:00,28.6,26.8,30.19,ENE,68,0.0,0.0,93,0.00,,,0.01,meteohub,2013-04-23 12:47:00,
2013-04-23 07:52:00,28.6,26.8,30.19,ENE,68,0.0,0.0,93,0.00,,,0.01,meteohub,2013-04-23 12:52:00,
2013-04-23 07:57:00,28.6,26.8,30.19,ENE,68,0.0,0.0,93,0.00,,,0.01,meteohub,2013-04-23 12:57:00,
2013-04-23 08:02:00,28.6,26.6,30.19,ENE,68,0.0,0.0,92,0.00,,,0.01,meteohub,2013-04-23 13:02:00,
2013-04-23 08:07:00,28.6,26.8,30.19,ENE,68,0.0,0.0,93,0.00,,,0.01,meteohub,2013-04-23 13:07:00,
2013-04-23 08:12:00,28.6,26.8,30.19,ENE,68,0.0,0.0,93,0.00,,,0.01,meteohub,2013-04-23 13:12:00,
2013-04-23 08:17:00,28.6,26.6,30.19,ENE,68,0.0,0.0,92,0.00,,,0.01,meteohub,2013-04-23 13:17:00,
2013-04-23 08:22:00,28.8,26.8,30.18,ENE,68,0.0,0.0,92,0.00,,,0.01,meteohub,2013-04-23 13:22:00,
2013-04-23 08:27:00,28.9,27.0,30.18,ENE,68,0.0,0.0,92,0.00,,,0.01,meteohub,2013-04-23 13:27:00,
2013-04-23 08:32:00,29.1,27.1,30.18,ENE,68,0.0,0.0,92,0.00,,,0.01,meteohub,2013-04-23 13:32:00,
2013-04-23 08:37:00,29.3,27.3,30.18,ENE,68,0.0,0.0,92,0.00,,,0.01,meteohub,2013-04-23 13:37:00,
2013-04-23 08:42:00,29.7,27.7,30.19,ENE,68,0.0,0.0,92,0.00,,,0.01,meteohub,2013-04-23 13:42:00,
2013-04-23 08:47:00,29.8,27.9,30.19,ENE,68,0.0,0.0,92,0.00,,,0.01,meteohub,2013-04-23 13:47:00,
2013-04-23 08:52:00,30.0,28.0,30.19,ENE,68,0.0,0.0,92,0.00,,,0.01,meteohub,2013-04-23 13:52:00,
2013-04-23 08:57:00,30.4,28.4,30.19,ENE,68,0.0,0.0,92,0.00,,,0.01,meteohub,2013-04-23 13:57:00,
2013-04-23 09:02:00,30.6,28.2,30.19,ENE,68,0.0,0.0,91,0.00,,,0.01,meteohub,2013-04-23 14:02:00,
2013-04-23 09:07:00,30.6,28.2,30.19,ENE,68,0.0,0.0,91,0.00,,,0.01,meteohub,2013-04-23 14:07:00,
2013-04-23 09:12:00,30.7,28.4,30.18,ENE,68,0.0,0.0,91,0.00,,,0.01,meteohub,2013-04-23 14:12:00,
2013-04-23 09:17:00,30.7,28.4,30.18,ENE,68,0.0,0.0,91,0.00,,,0.01,meteohub,2013-04-23 14:17:00,
2013-04-23 09:22:00,31.1,28.6,30.18,ENE,68,0.0,0.0,90,0.00,,,0.01,meteohub,2013-04-23 14:22:00,
2013-04-23 09:27:00,31.3,28.8,30.18,ENE,68,0.0,0.0,90,0.00,,,0.01,meteohub,2013-04-23 14:27:00,
2013-04-23 09:32:00,31.3,28.4,30.19,ENE,68,0.0,0.0,89,0.00,,,0.01,meteohub,2013-04-23 14:32:00,
2013-04-23 09:37:00,31.5,28.6,30.19,ENE,68,0.0,0.0,89,0.00,,,0.01,meteohub,2013-04-23 14:37:00,
2013-04-23 09:42:00,31.8,28.9,30.19,ENE,68,0.0,0.0,89,0.00,,,0.01,meteohub,2013-04-23 14:42:00,
2013-04-23 09:47:00,31.8,28.8,30.19,ENE,68,0.0,0.0,88,0.00,,,0.01,meteohub,2013-04-23 14:47:00,
2013-04-23 09:52:00,31.8,28.4,30.19,ENE,68,0.0,0.0,87,0.00,,,0.01,meteohub,2013-04-23 14:52:00,
2013-04-23 09:57:00,31.8,28.4,30.19,ENE,68,0.0,0.0,87,0.00,,,0.01,meteohub,2013-04-23 14:57:00,
2013-04-23 10:02:00,32.4,28.9,30.19,ENE,68,0.0,0.0,87,0.00,,,0.01,meteohub,2013-04-23 15:02:00,
2013-04-23 10:07:00,32.5,28.8,30.19,ENE,68,0.0,0.0,86,0.00,,,0.01,meteohub,2013-04-23 15:07:00,
2013-04-23 10:12:00,32.5,28.6,30.19,ENE,68,0.0,0.0,85,0.01,,,0.02,meteohub,2013-04-23 15:12:00,
2013-04-23 10:17:00,32.9,28.9,30.19,ENE,68,0.0,0.0,85,0.01,,,0.02,meteohub,2013-04-23 15:17:00,
2013-04-23 10:22:00,33.3,28.9,30.18,ENE,72,3.0,0.0,84,0.01,,,0.02,meteohub,2013-04-23 15:22:00,
2013-04-23 10:28:00,33.4,29.5,30.18,NNE,28,1.0,4.0,85,0.01,,,0.02,meteohub,2013-04-23 15:28:00,
2013-04-23 10:33:00,34.0,30.0,30.18,ENE,58,1.0,4.0,85,0.01,,,0.02,meteohub,2013-04-23 15:33:00,
2013-04-23 10:38:00,34.0,29.3,30.17,NE,42,3.0,4.0,83,0.02,,,0.03,meteohub,2013-04-23 15:38:00,
2013-04-23 10:43:00,34.2,29.5,30.17,ENE,76,6.0,6.0,83,0.03,,,0.04,meteohub,2013-04-23 15:43:00,
2013-04-23 10:48:00,34.0,29.3,30.17,ENE,75,3.0,6.0,83,0.03,,,0.04,meteohub,2013-04-23 15:48:00,
2013-04-23 10:53:00,33.6,28.8,30.17,ENE,61,1.0,6.0,82,0.04,,,0.05,meteohub,2013-04-23 15:53:00,
2013-04-23 10:58:00,33.6,28.8,30.17,ENE,78,4.0,7.0,82,0.05,,,0.06,meteohub,2013-04-23 15:58:00,
2013-04-23 11:03:00,34.3,29.5,30.17,ENE,61,1.0,7.0,82,0.05,,,0.06,meteohub,2013-04-23 16:03:00,
2013-04-23 11:08:00,34.3,29.1,30.17,East,79,2.0,7.0,81,0.05,,,0.06,meteohub,2013-04-23 16:08:00,
2013-04-23 11:13:00,34.5,29.3,30.17,NE,38,2.0,6.0,81,0.05,,,0.07,meteohub,2013-04-23 16:13:00,
2013-04-23 11:18:00,34.9,29.7,30.17,East,96,4.0,6.0,81,0.06,,,0.08,meteohub,2013-04-23 16:18:00,
2013-04-23 11:23:00,35.2,29.7,30.17,NE,52,3.0,7.0,80,0.06,,,0.08,meteohub,2013-04-23 16:23:00,
2013-04-23 11:28:00,35.6,30.4,30.16,NE,43,1.0,7.0,81,0.07,,,0.09,meteohub,2013-04-23 16:28:00,
2013-04-23 11:33:00,35.6,29.7,30.17,NE,52,1.0,6.0,79,0.07,,,0.10,meteohub,2013-04-23 16:33:00,
2013-04-23 11:39:00,35.6,29.1,30.17,ENE,76,4.0,6.0,77,0.07,,,0.10,meteohub,2013-04-23 16:39:00,
2013-04-23 11:44:00,35.8,29.7,30.17,East,80,1.0,6.0,78,0.07,,,0.11,meteohub,2013-04-23 16:44:00,
2013-04-23 11:49:00,36.0,29.8,30.17,ENE,71,1.0,6.0,78,0.06,,,0.11,meteohub,2013-04-23 16:49:00,
2013-04-23 11:54:00,36.1,29.7,30.17,East,82,0.0,5.0,77,0.07,,,0.12,meteohub,2013-04-23 16:54:00,
2013-04-23 11:59:00,36.1,29.3,30.16,NE,39,0.0,5.0,76,0.07,,,0.13,meteohub,2013-04-23 16:59:00,
2013-04-23 12:04:00,36.7,29.5,30.16,NNE,21,1.0,6.0,75,0.08,,,0.14,meteohub,2013-04-23 17:04:00,
2013-04-23 12:09:00,36.9,29.7,30.16,ENE,59,2.0,6.0,75,0.08,,,0.15,meteohub,2013-04-23 17:09:00,
2013-04-23 12:14:00,37.0,29.5,30.16,East,92,0.0,6.0,74,0.09,,,0.16,meteohub,2013-04-23 17:14:00,
2013-04-23 12:19:00,37.4,29.8,30.16,NE,48,0.0,6.0,74,0.09,,,0.17,meteohub,2013-04-23 17:19:00,
2013-04-23 12:24:00,37.4,29.5,30.16,East,80,5.0,6.0,73,0.09,,,0.18,meteohub,2013-04-23 17:24:00,
2013-04-23 12:29:00,37.8,29.8,30.15,ENE,65,1.0,6.0,73,0.09,,,0.18,meteohub,2013-04-23 17:29:00,
2013-04-23 12:34:00,37.8,29.5,30.15,North,11,1.0,6.0,72,0.09,,,0.19,meteohub,2013-04-23 17:34:00,
2013-04-23 12:39:00,38.5,30.9,30.15,NE,55,3.0,5.0,74,0.10,,,0.20,meteohub,2013-04-23 17:39:00,
2013-04-23 12:44:00,38.3,29.7,30.15,ENE,67,4.0,6.0,71,0.10,,,0.21,meteohub,2013-04-23 17:44:00,
2013-04-23 12:49:00,38.3,29.7,30.15,NE,51,4.0,6.0,71,0.10,,,0.22,meteohub,2013-04-23 17:49:00,
2013-04-23 12:55:00,38.3,28.8,30.14,NE,48,1.0,5.0,68,0.10,,,0.23,meteohub,2013-04-23 17:55:00,
2013-04-23 13:00:00,38.7,29.7,30.14,NE,49,1.0,6.0,70,0.11,,,0.24,meteohub,2013-04-23 18:00:00,
2013-04-23 13:05:00,38.8,29.5,30.14,NNE,29,1.0,9.0,69,0.12,,,0.26,meteohub,2013-04-23 18:05:00,
2013-04-23 13:10:00,38.5,28.0,30.14,NE,53,6.0,9.0,66,0.11,,,0.27,meteohub,2013-04-23 18:10:00,
2013-04-23 13:15:00,38.5,28.8,30.14,ENE,71,3.0,12.0,68,0.11,,,0.28,meteohub,2013-04-23 18:15:00,
2013-04-23 13:20:00,38.7,28.6,30.14,ENE,71,3.0,12.0,67,0.10,,,0.28,meteohub,2013-04-23 18:20:00,
2013-04-23 13:25:00,38.8,29.5,30.14,ENE,71,3.0,7.0,69,0.11,,,0.29,meteohub,2013-04-23 18:25:00,
2013-04-23 13:30:00,39.0,29.7,30.14,East,80,2.0,7.0,69,0.11,,,0.30,meteohub,2013-04-23 18:30:00,
2013-04-23 13:35:00,39.4,29.3,30.13,ENE,74,2.0,7.0,67,0.10,,,0.30,meteohub,2013-04-23 18:35:00,
2013-04-23 13:40:00,39.6,29.5,30.13,NE,41,4.0,7.0,67,0.08,,,0.30,meteohub,2013-04-23 18:40:00,
2013-04-23 13:45:00,39.7,28.9,30.13,ENE,71,4.0,7.0,65,0.08,,,0.31,meteohub,2013-04-23 18:45:00,
2013-04-23 13:50:00,39.6,28.4,30.13,NE,53,4.0,15.0,64,0.07,,,0.31,meteohub,2013-04-23 18:50:00,
2013-04-23 13:55:00,39.6,28.8,30.13,ENE,63,2.0,15.0,65,0.06,,,0.31,meteohub,2013-04-23 18:55:00,
2013-04-23 14:00:00,39.9,29.1,30.13,ENE,77,0.0,15.0,65,0.05,,,0.31,meteohub,2013-04-23 19:00:00,
2013-04-23 14:05:00,40.3,28.8,30.13,NE,44,2.0,10.0,63,0.05,,,0.31,meteohub,2013-04-23 19:05:00,
2013-04-23 14:11:00,40.3,29.1,30.13,NE,36,3.0,10.0,64,0.04,,,0.31,meteohub,2013-04-23 19:11:00,
2013-04-23 14:16:00,40.1,28.6,30.13,East,86,4.0,10.0,63,0.03,,,0.31,meteohub,2013-04-23 19:16:00,
2013-04-23 14:21:00,40.3,28.2,30.13,East,86,2.0,10.0,62,0.03,,,0.31,meteohub,2013-04-23 19:21:00,
2013-04-23 14:26:00,40.5,28.4,30.13,East,87,5.0,6.0,62,0.02,,,0.31,meteohub,2013-04-23 19:26:00,
2013-04-23 14:31:00,40.5,28.0,30.13,North,355,5.0,9.0,61,0.01,,,0.31,meteohub,2013-04-23 19:31:00,
2013-04-23 14:36:00,41.0,28.6,30.12,NE,42,2.0,9.0,61,0.01,,,0.31,meteohub,2013-04-23 19:36:00,
2013-04-23 14:41:00,41.4,29.3,30.13,NNW,344,2.0,9.0,62,0.01,,,0.31,meteohub,2013-04-23 19:41:00,
2013-04-23 14:46:00,40.8,28.4,30.13,East,83,1.0,6.0,61,0.00,,,0.31,meteohub,2013-04-23 19:46:00,
2013-04-23 14:51:00,41.0,28.9,30.12,ENE,78,2.0,6.0,62,0.00,,,0.31,meteohub,2013-04-23 19:51:00,
2013-04-23 14:56:00,41.2,27.1,30.12,NE,42,6.0,11.0,57,0.00,,,0.31,meteohub,2013-04-23 19:56:00,
2013-04-23 15:01:00,41.2,26.6,30.12,NNE,32,1.0,12.0,56,0.00,,,0.31,meteohub,2013-04-23 20:01:00,
2013-04-23 15:06:00,41.5,27.0,30.12,ENE,70,3.0,12.0,56,0.00,,,0.31,meteohub,2013-04-23 20:06:00,
2013-04-23 15:11:00,41.4,27.7,30.12,East,80,3.0,12.0,58,0.00,,,0.31,meteohub,2013-04-23 20:11:00,
2013-04-23 15:16:00,41.0,26.4,30.12,NE,39,1.0,6.0,56,0.00,,,0.31,meteohub,2013-04-23 20:16:00,
2013-04-23 15:21:00,41.7,27.7,30.12,ENE,75,4.0,8.0,57,0.00,,,0.31,meteohub,2013-04-23 20:21:00,
2013-04-23 15:27:00,41.5,27.5,30.13,ENE,74,3.0,8.0,57,0.00,,,0.31,meteohub,2013-04-23 20:27:00,
2013-04-23 15:32:00,41.5,27.0,30.12,East,82,0.0,9.0,56,0.00,,,0.31,meteohub,2013-04-23 20:32:00,
2013-04-23 15:37:00,41.5,27.0,30.12,East,84,2.0,9.0,56,0.00,,,0.31,meteohub,2013-04-23 20:37:00,
2013-04-23 15:42:00,41.9,27.3,30.12,ENE,71,2.0,9.0,56,0.00,,,0.31,meteohub,2013-04-23 20:42:00,
2013-04-23 15:47:00,41.9,27.9,30.11,ENE,74,3.0,9.0,57,0.00,,,0.31,meteohub,2013-04-23 20:47:00,
2013-04-23 15:52:00,41.5,25.7,30.12,NNE,32,3.0,9.0,53,0.00,,,0.31,meteohub,2013-04-23 20:52:00,
2013-04-23 15:57:00,41.9,27.0,30.12,ENE,70,2.0,9.0,55,0.00,,,0.31,meteohub,2013-04-23 20:57:00,
2013-04-23 16:02:00,42.3,25.9,30.11,NNE,33,0.0,11.0,52,0.00,,,0.31,meteohub,2013-04-23 21:02:00,
2013-04-23 16:07:00,41.9,25.2,30.11,ENE,76,4.0,11.0,51,0.00,,,0.31,meteohub,2013-04-23 21:07:00,
2013-04-23 16:12:00,42.1,26.2,30.11,ENE,57,2.0,10.0,53,0.00,,,0.31,meteohub,2013-04-23 21:12:00,
2013-04-23 16:17:00,42.4,26.1,30.10,NE,34,3.0,10.0,52,0.00,,,0.31,meteohub,2013-04-23 21:17:00,
2013-04-23 16:22:00,42.4,26.1,30.10,NE,56,1.0,10.0,52,0.00,,,0.31,meteohub,2013-04-23 21:22:00,
2013-04-23 16:27:00,42.4,25.5,30.11,NE,49,10.0,10.0,51,0.00,,,0.31,meteohub,2013-04-23 21:27:00,
2013-04-23 16:32:00,41.9,25.2,30.10,ENE,77,7.0,11.0,51,0.00,,,0.31,meteohub,2013-04-23 21:32:00,
2013-04-23 16:37:00,41.5,25.2,30.10,NE,55,3.0,12.0,52,0.00,,,0.31,meteohub,2013-04-23 21:37:00,
2013-04-23 16:42:00,41.7,25.3,30.10,NE,49,7.0,12.0,52,0.00,,,0.31,meteohub,2013-04-23 21:42:00,
2013-04-23 16:47:00,42.3,27.3,30.10,East,83,0.0,12.0,55,0.00,,,0.31,meteohub,2013-04-23 21:47:00,
2013-04-23 16:52:00,42.4,25.5,30.10,ENE,71,0.0,10.0,51,0.00,,,0.31,meteohub,2013-04-23 21:52:00,
2013-04-23 16:57:00,42.6,25.7,30.10,ENE,59,1.0,10.0,51,0.00,,,0.31,meteohub,2013-04-23 21:57:00,
2013-04-23 17:02:00,42.3,26.8,30.10,NE,49,2.0,6.0,54,0.00,,,0.31,meteohub,2013-04-23 22:02:00,
2013-04-23 17:07:00,42.3,25.3,30.10,NNE,14,1.0,6.0,51,0.00,,,0.31,meteohub,2013-04-23 22:07:00,
2013-04-23 17:12:00,42.1,25.7,30.10,ENE,69,0.0,10.0,52,0.00,,,0.31,meteohub,2013-04-23 22:12:00,
2013-04-23 17:17:00,41.7,26.2,30.10,ENE,67,2.0,10.0,54,0.00,,,0.31,meteohub,2013-04-23 22:17:00,
2013-04-23 17:22:00,42.1,26.6,30.10,ENE,73,2.0,7.0,54,0.00,,,0.31,meteohub,2013-04-23 22:22:00,
2013-04-23 17:27:00,42.1,25.7,30.10,NNE,17,0.0,7.0,52,0.00,,,0.31,meteohub,2013-04-23 22:27:00,
2013-04-23 17:32:00,41.9,26.1,30.10,East,80,0.0,7.0,53,0.00,,,0.31,meteohub,2013-04-23 22:32:00,
2013-04-23 17:37:00,41.9,26.1,30.10,NE,50,2.0,7.0,53,0.00,,,0.31,meteohub,2013-04-23 22:37:00,
2013-04-23 17:42:00,41.9,26.1,30.10,ENE,75,4.0,7.0,53,0.00,,,0.31,meteohub,2013-04-23 22:42:00,
2013-04-23 17:47:00,42.1,26.2,30.10,East,88,3.0,7.0,53,0.00,,,0.31,meteohub,2013-04-23 22:47:00,
2013-04-23 17:52:00,41.5,24.8,30.10,ENE,78,2.0,7.0,51,0.00,,,0.31,meteohub,2013-04-23 22:52:00,
2013-04-23 17:57:00,41.2,25.3,30.10,ENE,67,2.0,6.0,53,0.00,,,0.31,meteohub,2013-04-23 22:57:00,
2013-04-23 18:02:00,41.2,25.3,30.10,NE,36,4.0,6.0,53,0.00,,,0.31,meteohub,2013-04-23 23:02:00,
2013-04-23 18:07:00,41.2,24.4,30.10,ENE,65,2.0,5.0,51,0.00,,,0.31,meteohub,2013-04-23 23:07:00,
2013-04-23 18:12:00,40.8,24.1,30.10,NE,46,2.0,7.0,51,0.00,,,0.31,meteohub,2013-04-23 23:12:00,
2013-04-23 18:17:00,40.6,24.8,30.10,NE,44,1.0,9.0,53,0.00,,,0.31,meteohub,2013-04-23 23:17:00,
2013-04-23 18:22:00,40.5,24.3,30.09,NE,51,1.0,9.0,52,0.00,,,0.31,meteohub,2013-04-23 23:22:00,
2013-04-23 18:27:00,40.5,23.7,30.09,NE,45,1.0,7.0,51,0.00,,,0.31,meteohub,2013-04-23 23:27:00,
2013-04-23 18:32:00,40.3,23.5,30.09,ENE,75,5.0,7.0,51,0.00,,,0.31,meteohub,2013-04-23 23:32:00,
2013-04-23 18:37:00,40.1,23.4,30.09,NNE,21,2.0,10.0,51,0.00,,,0.31,meteohub,2013-04-23 23:37:00,
2013-04-23 18:42:00,39.9,23.2,30.09,NE,52,0.0,10.0,51,0.00,,,0.31,meteohub,2013-04-23 23:42:00,
2013-04-23 18:47:00,39.9,23.7,30.09,NE,35,2.0,10.0,52,0.00,,,0.31,meteohub,2013-04-23 23:47:00,
2013-04-23 18:52:00,39.7,23.2,30.09,NE,39,0.0,9.0,51,0.00,,,0.31,meteohub,2013-04-23 23:52:00,
2013-04-23 18:57:00,39.6,23.0,30.09,NNE,14,1.0,7.0,51,0.00,,,0.31,meteohub,2013-04-23 23:57:00,
2013-04-23 19:02:00,39.6,23.0,30.09,ENE,67,1.0,7.0,51,0.00,,,0.31,meteohub,2013-04-24 00:02:00,
2013-04-23 19:07:00,39.6,23.0,30.09,NE,36,1.0,10.0,51,0.00,,,0.00,meteohub,2013-04-24 00:07:00,
2013-04-23 19:12:00,39.4,22.8,30.10,NE,49,0.0,10.0,51,0.00,,,0.00,meteohub,2013-04-24 00:12:00,
2013-04-23 19:17:00,39.0,22.8,30.09,NE,40,0.0,10.0,52,0.00,,,0.00,meteohub,2013-04-24 00:17:00,
2013-04-23 19:22:00,38.8,22.3,30.09,East,84,4.0,5.0,51,0.00,,,0.00,meteohub,2013-04-24 00:22:00,
2013-04-23 19:27:00,38.8,21.7,30.09,NE,37,1.0,5.0,50,0.00,,,0.00,meteohub,2013-04-24 00:27:00,
2013-04-23 19:32:00,38.7,21.6,30.09,ENE,71,4.0,7.0,50,0.00,,,0.00,meteohub,2013-04-24 00:32:00,
2013-04-23 19:37:00,38.7,22.1,30.09,NE,47,3.0,10.0,51,0.00,,,0.00,meteohub,2013-04-24 00:37:00,
2013-04-23 19:42:00,38.5,21.9,30.10,NE,39,1.0,10.0,51,0.00,,,0.00,meteohub,2013-04-24 00:42:00,
2013-04-23 19:47:00,38.1,22.1,30.10,NE,44,0.0,9.0,52,0.00,,,0.00,meteohub,2013-04-24 00:47:00,
2013-04-23 19:52:00,37.8,22.6,30.09,NE,44,0.0,6.0,54,0.00,,,0.00,meteohub,2013-04-24 00:52:00,
2013-04-23 19:57:00,37.4,21.9,30.10,NE,38,1.0,6.0,53,0.00,,,0.00,meteohub,2013-04-24 00:57:00,
2013-04-23 20:02:00,37.4,21.9,30.10,NE,44,0.0,7.0,53,0.00,,,0.00,meteohub,2013-04-24 01:02:00,
2013-04-23 20:07:00,37.2,21.7,30.10,NE,44,1.0,7.0,53,0.00,,,0.00,meteohub,2013-04-24 01:07:00,
2013-04-23 21:18:00,35.1,23.0,30.12,North,-999,-999.0,7.0,61,0.00,,,0.00,meteohub,2013-04-24 02:18:00,
2013-04-23 21:23:00,34.9,23.2,30.12,NNE,15,2.0,-999.0,62,0.00,,,0.00,meteohub,2013-04-24 02:23:00,
2013-04-23 21:29:00,34.9,23.2,30.13,NNE,17,0.0,4.0,62,0.00,,,0.00,meteohub,2013-04-24 02:29:00,
2013-04-23 21:34:00,34.5,22.8,30.13,NE,46,2.0,4.0,62,0.00,,,0.00,meteohub,2013-04-24 02:34:00,
2013-04-23 21:39:00,34.3,23.0,30.13,NNE,30,2.0,5.0,63,0.00,,,0.00,meteohub,2013-04-24 02:39:00,
2013-04-23 21:44:00,34.3,23.4,30.13,NNE,28,0.0,5.0,64,0.00,,,0.00,meteohub,2013-04-24 02:44:00,
2013-04-23 21:50:00,34.3,23.4,30.13,NE,36,0.0,4.0,64,0.00,,,0.00,meteohub,2013-04-24 02:50:00,
2013-04-23 21:55:00,34.2,23.5,30.14,NNE,24,0.0,5.0,65,0.00,,,0.00,meteohub,2013-04-24 02:55:00,
2013-04-23 22:01:00,34.0,23.5,30.13,NE,45,4.0,5.0,65,0.00,,,0.00,meteohub,2013-04-24 03:01:00,
2013-04-23 22:07:00,33.6,23.5,30.14,NE,38,0.0,5.0,66,0.00,,,0.00,meteohub,2013-04-24 03:07:00,
2013-04-23 22:12:00,33.6,23.5,30.13,NE,44,3.0,5.0,66,0.00,,,0.00,meteohub,2013-04-24 03:12:00,
2013-04-23 22:17:00,33.4,23.7,30.13,NNE,32,3.0,5.0,67,0.00,,,0.00,meteohub,2013-04-24 03:17:00,
2013-04-23 22:22:00,33.3,23.5,30.13,NE,44,0.0,4.0,67,0.00,,,0.00,meteohub,2013-04-24 03:22:00,
2013-04-23 22:28:00,33.1,23.7,30.13,NE,42,0.0,4.0,68,0.00,,,0.00,meteohub,2013-04-24 03:28:00,
2013-04-23 22:33:00,32.9,23.5,30.13,NE,42,0.0,3.0,68,0.00,,,0.00,meteohub,2013-04-24 03:33:00,
2013-04-23 22:39:00,32.7,23.7,30.12,NE,44,0.0,4.0,69,0.00,,,0.00,meteohub,2013-04-24 03:39:00,
2013-04-23 22:45:00,32.5,23.5,30.12,NNE,32,2.0,5.0,69,0.00,,,0.00,meteohub,2013-04-24 03:45:00,
2013-04-23 22:50:00,32.5,23.9,30.12,NE,49,0.0,5.0,70,0.00,,,0.00,meteohub,2013-04-24 03:50:00,
2013-04-23 22:55:00,32.4,23.7,30.12,NE,49,0.0,4.0,70,0.00,,,0.00,meteohub,2013-04-24 03:55:00,
2013-04-23 23:01:00,32.4,23.7,30.12,NE,48,2.0,3.0,70,0.00,,,0.00,meteohub,2013-04-24 04:01:00,
2013-04-23 23:02:00,32.4,23.7,30.12,NE,49,0.0,3.0,70,0.00,,,0.00,meteohub,2013-04-24 04:02:00,
2013-04-23 23:03:00,32.4,23.7,30.12,NE,49,1.0,3.0,70,0.00,,,0.00,meteohub,2013-04-24 04:03:00,
2013-04-23 23:08:00,32.4,23.7,30.12,NNE,19,1.0,4.0,70,0.00,,,0.00,meteohub,2013-04-24 04:08:00,
2013-04-23 23:13:00,32.4,23.7,30.12,NE,34,1.0,4.0,70,0.00,,,0.00,meteohub,2013-04-24 04:13:00,
2013-04-23 23:18:00,32.2,23.9,30.12,NE,39,0.0,4.0,71,0.00,,,0.00,meteohub,2013-04-24 04:18:00,
2013-04-23 23:23:00,32.2,23.9,30.11,NE,37,0.0,3.0,71,0.00,,,0.00,meteohub,2013-04-24 04:23:00,
2013-04-23 23:28:00,32.0,23.7,30.11,NE,38,2.0,4.0,71,0.00,,,0.00,meteohub,2013-04-24 04:28:00,
2013-04-23 23:33:00,31.8,23.5,30.11,NE,38,2.0,4.0,71,0.00,,,0.00,meteohub,2013-04-24 04:33:00,
2013-04-23 23:38:00,31.8,23.5,30.11,NE,37,0.0,4.0,71,0.00,,,0.00,meteohub,2013-04-24 04:38:00,
2013-04-23 23:43:00,31.8,23.9,30.11,NE,38,0.0,4.0,72,0.00,,,0.00,meteohub,2013-04-24 04:43:00,
2013-04-23 23:48:00,31.6,23.7,30.11,NNE,15,0.0,4.0,72,0.00,,,0.00,meteohub,2013-04-24 04:48:00,
2013-04-23 23:53:00,31.5,23.5,30.11,NNE,15,0.0,2.0,72,0.00,,,0.00,meteohub,2013-04-24 04:53:00,
2013-04-23 23:58:00,31.3,23.7,30.11,NNE,15,0.0,2.0,73,0.00,,,0.00,meteohub,2013-04-24 04:58:00,